Terminal Aerodrome Forecast
Issued by NWS Pendleton, OR

Home | Current Version | Previous Version | Text Only | Print | Product List | Glossary On
Versions: 1 2 3 4 5 6 7 8 9 10 11 12 13 14 15 16 17 18
000
FTUS46 KPDT 231025 AAC
TAFPDT
TAF AMD
KPDT 231025Z 2310/2406 30011KT P6SM -RA OVC050
     FM231400 24007KT P6SM OVC080
     FM231800 29010G18KT P6SM SCT070 BKN250
     FM240000 26007KT P6SM BKN250=

USA.gov is the U.S. government's official web portal to all federal, state and local government web resources and services.